Location: Seattle
(47.6064°N, 122.3308°W)
Time: 02:17:51
(UTC-07:00)

STRAND 1 - Pass Details

Date: 03 April 2023
Orbit: 767 x 779 km, 98.4° (Epoch: 02 June)

Event Time Altitude Azimuth Distance (km) Brightness Sun altitude
Rises 05:03:10 0° 104° (ESE) 3,248 ? -16.9°
Reaches altitude 10° 05:07:01 10° 74° (ENE) 2,323 ? -16.3°
Maximum altitude 05:08:51 12° 53° (NE) 2,190 ? -16.1°
Drops below altitude 10° 05:10:41 10° 32° (NNE) 2,326 ? -15.8°
Sets 05:14:32 0° 2° (N) 3,256 ? -15.2°
